This demonstration page uses our WeatherBlox Daily Observations layout. Learn more.

Left ArrowRight Arrow

39.08367, -84.50855

Hourly Observations for April 17, 2020

Temp ( °F °C ) Dew Point ( °F °C ) Humidity (%) Winds ( mph kmh ) Pressure ( in mb ) Visibility ( mi km ) Precip ( " mm )
12:53 am 00:53 Cloudy 43 6.1 35 1.7 74 74 Calm 30.31 1026 10 16 0.00 0.00
1:53 am 01:53 Cloudy 45 7.2 31 -0.6 58 58 Calm 30.29 1026 10 16 0.00 0.00
2:53 am 02:53 Cloudy 44 6.7 35 1.7 71 71 ENE 5 7 30.25 1024 10 16 0.00 0.00
3:53 am 03:53 Cloudy 43 6.1 33 0.6 68 68 Calm 30.22 1023 10 16 0.00 0.00
4:53 am 04:53 Cloudy 44 6.7 30 -1.1 58 58 ENE 5 7 30.20 1023 10 16 0.00 0.00
5:53 am 05:53 Cloudy 45 7.2 30 -1.1 56 56 VRB 3 6 30.19 1022 10 16 0.00 0.00
6:53 am 06:53 Cloudy 44 6.7 31 -0.6 60 60 Calm 30.16 1022 10 16 0.00 0.00
7:53 am 07:53 Cloudy 45 7.2 31 -0.6 58 58 SE 5 7 30.16 1021 10 16 0.00 0.00
8:53 am 08:53 Mostly Cloudy 46 7.8 30 -1.1 54 54 SSE 12 19 30.14 1021 10 16 0.00 0.00
9:53 am 09:53 Cloudy 47 8.3 30 -1.1 52 52 VRB 7 11 30.09 1019 10 16 0.00 0.00
10:53 am 10:53 Cloudy 49 9.4 32 0 52 52 SW 8 13 30.09 1019 10 16 0.00 0.00
11:53 am 11:53 Cloudy 51 10.6 34 1.1 52 52 S 12 19 30.03 1017 10 16 0.00 0.00
12:53 pm 12:53 Cloudy with Light Rain 49 9.4 42 5.6 77 77 S 9 15 30.01 1016 7 11 0.05 1.27
1:53 pm 13:53 Cloudy with Light Rain 52 11.1 45 7.2 77 77 SSW 9 15 29.96 1014 10 16 0.00 0.00
2:53 pm 14:53 Cloudy with Light Rain 54 12.2 46 7.8 75 75 SSW 10 17 29.93 1014 10 16 0.01 0.25
3:53 pm 15:53 Cloudy with Light Rain 54 12.2 46 7.8 75 75 SW 17 28 29.91 1013 10 16 0.00 0.00
4:53 pm 16:53 Cloudy with Light Rain 52 11.1 48 8.9 86 86 SSW 14 22 29.92 1013 7 11 0.03 0.76
5:53 pm 17:53 Cloudy with Light Rain 51 10.6 48 8.9 89 89 SW 14 22 29.92 1013 5 8 0.00 0.00
6:51 pm 18:51 Cloudy with Light Rain 50 10 48 9 94 94 WSW 10 17 29.93 1013 4 6 0.02 0.51
6:53 pm 18:53 Cloudy with Light Rain 50 10 48 8.9 93 93 WSW 9 15 29.92 1013 4 6 0.02 0.51
7:53 pm 19:53 Cloudy with Light Rain 50 10 48 8.9 93 93 WSW 8 13 29.90 1013 5 8 0.01 0.25
8:53 pm 20:53 Cloudy with Light Rain 50 10 48 8.9 93 93 SW 7 11 29.90 1013 5 8 0.07 1.78
9:53 pm 21:53 Cloudy with Light Rain 48 8.9 45 7.2 89 89 W 9 15 29.92 1013 9 14 0.04 1.02
10:53 pm 22:53 Cloudy with Light Rain 46 7.8 43 6.1 89 89 NW 13 20 29.94 1014 10 16 0.05 1.27
11:17 pm 23:17 Cloudy 45 7.2 42 5.6 90 90 NNW 16 26 29.95 1014 9 14 0.00 0.00
11:53 pm 23:53 Cloudy with Light Rain 44 6.7 40 4.4 85 85 NNW 9 15 29.95 1014 9 14 0.00 0.00

Powered by AerisWeather